User: anonymous   Login
Location: Maccacari
(45.1333°N, 11.1333°E)
Time: 02:23:51
(UTC+00:00)
Language:

NOSS 3-2 (C) - Orbit

View from above orbital plane
View from above orbital plane
View from above satellite
View from above satellite

Ground track
Ground track

The orbit data is extracted from the following two-line orbital elements,

1 28097U 03054C   20328.09946303 0.00000000  00000-0  00000-0 0    00
2 28097  63.4102 353.0451 0425229 359.4554   0.5446 13.40768268    08
Epoch (UTC): 23 November 2020 02:23:13
Eccentricity: 0.0425229
inclination: 63.4102°
perigee height: 788 km
apogee height: 1424 km
right ascension of ascending node: 353.0451°
argument of perigee: 359.4554°
revolutions per day: 13.40768268
mean anomaly at epoch: 0.5446°
orbit number at epoch: 0

The dashed part of the orbit path shows where the satellite is in the earth's shadow,  

DLR